Anaktuvuk Pass, AK

4:35 AM AKST on February 24, 2017 (GMT -0900)
Anaktuvuk Pass

Weather History for PAKP - November, 2012

Change the Weather History Date:

Friday, November 30, 2012

  Actual Average Record
Temperature  
Mean Temperature -9 °F -  
Max Temperature 0 °F 0 °F 32 °F (2002)
Min Temperature -18 °F -8 °F -27 °F (2016)
Degree Days  
Heating Degree Days 74    
Moisture  
Dew Point -20 °F    
Average Humidity 65    
Maximum Humidity 84    
Minimum Humidity 53    
Precipitation  
Precipitation 0.00 in - - ()
Sea Level Pressure  
Sea Level Pressure 29.98 in    
Wind  
Wind Speed 5 mph (SSW)    
Max Wind Speed 14 mph    
Max Gust Speed -    
Visibility 10 miles    
Events      
Averages and records for this station are not official NWS values.
T = Trace of Precipitation, MM = Missing Value Source: NWS Daily Summary

Daily Weather History Graph

Daily Weather History Graph

Search for Another Location

Airport or City:

Trip Planner

Search our weather history database for the weather conditions in past years. The results will help you decide how hot, cold, wet, or windy it might be!

Date:

Astronomy

Nov. 30, 2012 Rise Set
Actual Time 11:46 AM AKST 2:04 PM AKST
Civil Twilight 9:51 AM AKST 3:59 PM AKST
Nautical Twilight 8:28 AM AKST 5:22 PM AKST
Astronomical Twilight 7:19 AM AKST 6:31 PM AKST
Moon 4:33 PM AKST (11/30) 1:04 PM AKST (11/30)
Length of Visible Light 6h 07m
Length of Day
2h 17m
Waning Gibbous, 95% of the Moon is Illuminated
Nov 30
Waning Gibbous
Dec 6
Last Quarter
Dec 12
New
Dec 19
First Quarter
Dec 28
Full

Hourly Weather History & Observations

Time (AKST) Temp. Windchill Dew Point Humidity Pressure Visibility Wind Dir Wind Speed Gust Speed Precip Events Conditions
12:16 AM -5.8 °F -24.4 °F -14.8 °F 65% 30.09 in 10.0 mi South 11.5 mph - N/A   Clear
12:36 AM -5.8 °F -21.2 °F -16.6 °F 60% 30.09 in 10.0 mi SSW 8.1 mph - N/A   Clear
12:56 AM -5.8 °F -26.0 °F -14.8 °F 65% 30.09 in 10.0 mi South 13.8 mph - N/A   Clear
1:16 AM -5.8 °F -25.2 °F -16.6 °F 60% 30.09 in 10.0 mi South 12.7 mph - N/A   Clear
1:36 AM -5.8 °F -24.4 °F -14.8 °F 65% 30.10 in 10.0 mi South 11.5 mph - N/A   Clear
1:56 AM -5.8 °F -24.4 °F -16.6 °F 60% 30.10 in 10.0 mi South 11.5 mph - N/A   Clear
2:16 AM -5.8 °F -21.2 °F -14.8 °F 65% 30.09 in 10.0 mi SSW 8.1 mph - N/A   Clear
2:36 AM -5.8 °F -16.7 °F -16.6 °F 60% 30.09 in 10.0 mi South 4.6 mph - N/A   Clear
2:56 AM -7.6 °F -18.8 °F -16.6 °F 65% 30.08 in 10.0 mi SSW 4.6 mph - N/A   Clear
3:16 AM -9.4 °F - -18.4 °F 65% 30.08 in 10.0 mi Calm Calm - N/A   Clear
3:36 AM -9.4 °F -22.7 °F -16.6 °F 71% 30.07 in 10.0 mi South 5.8 mph - N/A   Clear
3:56 AM -9.4 °F -25.6 °F -20.2 °F 59% 30.06 in 10.0 mi South 8.1 mph - N/A   Clear
4:16 AM -7.6 °F -25.7 °F -14.8 °F 71% 30.06 in 10.0 mi South 10.4 mph - N/A   Clear
4:36 AM -7.6 °F -23.4 °F -16.6 °F 65% 30.06 in 10.0 mi South 8.1 mph - N/A   Clear
4:56 AM -7.6 °F -23.4 °F -16.6 °F 65% 30.06 in 10.0 mi SSW 8.1 mph - N/A   Clear
5:16 AM -9.4 °F -25.6 °F -20.2 °F 59% 30.06 in 10.0 mi South 8.1 mph - N/A   Clear
5:36 AM -9.4 °F -22.7 °F -18.4 °F 65% 30.06 in 10.0 mi SW 5.8 mph - N/A   Clear
5:56 AM -9.4 °F -24.3 °F -18.4 °F 65% 30.06 in 10.0 mi South 6.9 mph - N/A   Clear
6:16 AM -9.4 °F -20.9 °F -20.2 °F 59% 30.05 in 10.0 mi SSW 4.6 mph - N/A   Clear
6:36 AM -11.2 °F - -22.0 °F 59% 30.05 in 10.0 mi Calm Calm - N/A   Clear
6:56 AM -11.2 °F - -20.2 °F 64% 30.04 in 10.0 mi Calm Calm - N/A   Clear
7:16 AM -11.2 °F - -20.2 °F 64% 30.04 in 10.0 mi Calm Calm - N/A   Clear
7:36 AM -13.0 °F - -23.8 °F 59% 30.04 in 10.0 mi Calm Calm - N/A   Clear
7:56 AM -14.8 °F - -23.8 °F 64% 30.04 in 10.0 mi Calm Calm - N/A   Clear
8:16 AM -14.8 °F - -25.6 °F 58% 30.03 in 10.0 mi Calm Calm - N/A   Clear
8:36 AM -16.6 °F -26.8 °F -23.8 °F 70% 30.03 in 9.0 mi SSW 3.5 mph - N/A   Clear
8:56 AM -13.0 °F -22.7 °F -23.8 °F 59% 30.02 in 8.0 mi South 3.5 mph - N/A   Clear
9:16 AM -14.8 °F - -23.8 °F 64% 30.02 in 10.0 mi Calm Calm - N/A   Clear
9:36 AM -14.8 °F - -23.8 °F 64% 30.01 in 10.0 mi Calm Calm - N/A   Clear
9:56 AM -14.8 °F - -23.8 °F 64% 30.01 in 10.0 mi Calm Calm - N/A   Clear
10:16 AM -16.6 °F -26.8 °F -25.6 °F 64% 30.02 in 7.0 mi South 3.5 mph - N/A   Clear
10:36 AM -14.8 °F -24.8 °F -23.8 °F 64% 30.01 in 10.0 mi West 3.5 mph - N/A   Clear
10:56 AM -16.6 °F - -27.4 °F 58% 30.01 in 10.0 mi Calm Calm - N/A   Clear
11:16 AM -14.8 °F - -23.8 °F 64% 30.00 in 10.0 mi Calm Calm - N/A   Clear
11:36 AM -16.6 °F - -25.6 °F 64% 30.00 in 10.0 mi Calm Calm - N/A   Clear
11:56 AM -14.8 °F - -25.6 °F 58% 29.99 in 10.0 mi Calm Calm - N/A   Clear
12:16 PM -18.4 °F - -27.4 °F 63% 29.98 in 10.0 mi Calm Calm - N/A   Clear
12:36 PM -16.6 °F - -23.8 °F 70% 29.98 in 10.0 mi Calm Calm - N/A   Clear
12:56 PM -16.6 °F - -25.6 °F 64% 29.98 in 7.0 mi Calm Calm - N/A   Clear
1:16 PM -14.8 °F - -23.8 °F 64% 29.97 in 9.0 mi Calm Calm - N/A   Clear
1:36 PM -16.6 °F - -23.8 °F 70% 29.96 in 10.0 mi Calm Calm - N/A   Clear
1:56 PM -14.8 °F - -25.6 °F 58% 29.97 in 10.0 mi Calm Calm - N/A   Clear
2:16 PM -16.6 °F - -20.2 °F 84% 29.97 in 5.0 mi Calm Calm - N/A   Clear
2:36 PM -18.4 °F - -27.4 °F 63% 29.97 in 6.0 mi Calm Calm - N/A   Clear
2:56 PM -16.6 °F - -23.8 °F 70% 29.97 in 5.0 mi Calm Calm - N/A   Clear
3:16 PM -16.6 °F - -23.8 °F 70% 29.96 in 2.0 mi Calm Calm - N/A   Clear
3:36 PM -16.6 °F - -25.6 °F 64% 29.95 in 8.0 mi Calm Calm - N/A   Clear
3:56 PM -16.6 °F - -27.4 °F 58% 29.94 in 10.0 mi Calm Calm - N/A   Clear
4:16 PM -18.4 °F - -29.2 °F 58% 29.94 in 10.0 mi Calm Calm - N/A   Clear
4:36 PM -14.8 °F -24.8 °F -22.0 °F 70% 29.94 in 10.0 mi North 3.5 mph - N/A   Clear
4:56 PM -13.0 °F - -18.4 °F 77% 29.93 in 10.0 mi Calm Calm - N/A   Clear
5:16 PM -14.8 °F - -23.8 °F 64% 29.93 in 10.0 mi Calm Calm - N/A   Clear
5:36 PM -13.0 °F - -25.6 °F 53% 29.93 in 10.0 mi Calm Calm - N/A   Clear
5:56 PM -11.2 °F -23.0 °F -20.2 °F 64% 29.92 in 10.0 mi North 4.6 mph - N/A   Clear
6:16 PM -11.2 °F - -18.4 °F 70% 29.92 in 10.0 mi Calm Calm - N/A   Clear
6:36 PM -11.2 °F - -18.4 °F 70% 29.91 in 10.0 mi Calm Calm - N/A   Clear
6:56 PM -11.2 °F - -20.2 °F 64% 29.90 in 10.0 mi Calm Calm - N/A   Clear
7:16 PM -11.2 °F - -22.0 °F 59% 29.90 in 10.0 mi Calm Calm - N/A   Clear
7:36 PM -11.2 °F - -18.4 °F 70% 29.89 in 10.0 mi Calm Calm - N/A   Clear
7:56 PM -9.4 °F - -14.8 °F 77% 29.88 in 10.0 mi Calm Calm - N/A   Clear
8:16 PM -7.6 °F - -14.8 °F 71% 29.88 in 10.0 mi Calm Calm - N/A   Clear
8:36 PM -7.6 °F - -16.6 °F 65% 29.87 in 10.0 mi Calm Calm - N/A   Partly Cloudy
8:56 PM -7.6 °F - -16.6 °F 65% 29.87 in 10.0 mi Calm Calm - N/A   Clear
9:16 PM -5.8 °F -19.9 °F -11.2 °F 77% 29.86 in 10.0 mi North 6.9 mph - N/A   Clear
9:36 PM -2.2 °F -15.6 °F -11.2 °F 66% 29.86 in 10.0 mi North 6.9 mph - N/A   Clear
9:56 PM -2.2 °F -12.5 °F -9.4 °F 71% 29.85 in 10.0 mi NNW 4.6 mph - N/A   Clear
10:16 PM -5.8 °F -14.5 °F -16.6 °F 60% 29.85 in 10.0 mi NNW 3.5 mph - N/A   Clear
10:36 PM -2.2 °F -10.4 °F -7.6 °F 78% 29.85 in 10.0 mi North 3.5 mph - N/A   Clear
10:56 PM -2.2 °F -14.2 °F -11.2 °F 66% 29.85 in 10.0 mi NNW 5.8 mph - N/A   Partly Cloudy
11:16 PM -0.4 °F -12.0 °F -7.6 °F 72% 29.84 in 10.0 mi North 5.8 mph - N/A   Mostly Cloudy
11:36 PM -2.2 °F -15.6 °F -9.4 °F 71% 29.84 in 10.0 mi North 6.9 mph - N/A   Scattered Clouds
11:56 PM -0.4 °F -13.4 °F -5.8 °F 78% 29.84 in 10.0 mi NNE 6.9 mph - N/A   Clear